Time,TemperatureF,DewpointF,PressureIn,WindDirection,WindDirectionDegrees,WindSpeedMPH,WindSpeedGustMPH,Humidity,HourlyPrecipIn,Conditions,Clouds,dailyrainin,SoftwareType,DateUTC
2013-09-09 00:01:00,65.0,63.8,30.01,ESE,108,0.0,0.0,96,0.00,,,0.00,WeatherCatV1.20B785,2013-09-09 04:01:00,
2013-09-09 00:06:00,65.0,63.8,30.02,ESE,108,0.0,0.0,96,0.00,,,0.00,WeatherCatV1.20B785,2013-09-09 04:06:00,
2013-09-09 00:11:00,65.0,63.8,30.01,ESE,108,0.0,0.0,96,0.00,,,0.00,WeatherCatV1.20B785,2013-09-09 04:11:00,
2013-09-09 00:16:00,64.9,63.7,30.01,ESE,108,0.0,0.0,96,0.00,,,0.00,WeatherCatV1.20B785,2013-09-09 04:16:00,
2013-09-09 00:21:00,65.0,64.1,30.01,ESE,108,0.0,0.0,97,0.00,,,0.00,WeatherCatV1.20B785,2013-09-09 04:21:00,
2013-09-09 00:26:00,65.0,63.8,30.01,ESE,108,0.0,0.0,96,0.00,,,0.00,WeatherCatV1.20B785,2013-09-09 04:26:00,
2013-09-09 00:31:00,65.0,63.8,30.01,ESE,108,0.0,0.0,96,0.00,,,0.00,WeatherCatV1.20B785,2013-09-09 04:31:00,
2013-09-09 00:36:00,64.8,63.6,30.02,ESE,108,0.0,0.0,96,0.00,,,0.00,WeatherCatV1.20B785,2013-09-09 04:36:00,
2013-09-09 00:41:00,64.6,63.4,30.02,ESE,108,0.0,0.0,96,0.00,,,0.00,WeatherCatV1.20B785,2013-09-09 04:41:00,
2013-09-09 00:46:00,64.6,63.4,30.02,ESE,108,0.0,0.0,96,0.00,,,0.00,WeatherCatV1.20B785,2013-09-09 04:46:00,
2013-09-09 00:51:00,64.5,63.3,30.02,ESE,108,0.0,0.0,96,0.00,,,0.00,WeatherCatV1.20B785,2013-09-09 04:51:00,
2013-09-09 00:56:00,64.5,63.3,30.02,ESE,108,0.0,0.0,96,0.00,,,0.00,WeatherCatV1.20B785,2013-09-09 04:56:00,
2013-09-09 01:01:00,64.5,63.6,30.02,ESE,108,0.0,0.0,97,0.00,,,0.00,WeatherCatV1.20B785,2013-09-09 05:01:00,
2013-09-09 01:06:00,64.6,63.7,30.02,ESE,108,0.0,0.0,97,0.00,,,0.00,WeatherCatV1.20B785,2013-09-09 05:06:00,
2013-09-09 01:11:00,64.4,63.2,30.02,ESE,108,0.0,0.0,96,0.00,,,0.00,WeatherCatV1.20B785,2013-09-09 05:11:00,
2013-09-09 01:16:00,64.3,63.1,30.02,ESE,108,0.0,0.0,96,0.00,,,0.00,WeatherCatV1.20B785,2013-09-09 05:16:00,
2013-09-09 01:21:00,64.2,63.3,30.02,ESE,108,0.0,0.0,97,0.00,,,0.00,WeatherCatV1.20B785,2013-09-09 05:21:00,
2013-09-09 01:26:00,64.1,62.9,30.03,ESE,108,0.0,0.0,96,0.00,,,0.00,WeatherCatV1.20B785,2013-09-09 05:26:00,
2013-09-09 01:31:00,64.0,62.8,30.03,ESE,108,0.0,0.0,96,0.00,,,0.00,WeatherCatV1.20B785,2013-09-09 05:31:00,
2013-09-09 01:36:00,64.1,63.2,30.03,ESE,108,0.0,0.0,97,0.00,,,0.00,WeatherCatV1.20B785,2013-09-09 05:36:00,
2013-09-09 01:41:00,64.0,62.8,30.03,ESE,108,0.0,0.0,96,0.00,,,0.00,WeatherCatV1.20B785,2013-09-09 05:41:00,
2013-09-09 01:46:00,63.8,62.6,30.03,ESE,108,0.0,0.0,96,0.00,,,0.00,WeatherCatV1.20B785,2013-09-09 05:46:00,
2013-09-09 01:51:00,63.8,62.9,30.03,ESE,108,0.0,0.0,97,0.00,,,0.00,WeatherCatV1.20B785,2013-09-09 05:51:00,
2013-09-09 01:56:00,63.7,62.8,30.02,ESE,108,0.0,0.0,97,0.00,,,0.00,WeatherCatV1.20B785,2013-09-09 05:56:00,
2013-09-09 02:01:00,63.6,62.7,30.02,ESE,108,0.0,0.0,97,0.00,,,0.00,WeatherCatV1.20B785,2013-09-09 06:01:00,
2013-09-09 02:06:00,63.6,62.7,30.02,ESE,108,0.0,0.0,97,0.00,,,0.00,WeatherCatV1.20B785,2013-09-09 06:06:00,
2013-09-09 02:11:00,63.6,62.7,30.02,ESE,108,0.0,0.0,97,0.00,,,0.00,WeatherCatV1.20B785,2013-09-09 06:11:00,
2013-09-09 02:16:00,63.4,62.2,30.02,ESE,108,0.0,0.0,96,0.00,,,0.00,WeatherCatV1.20B785,2013-09-09 06:16:00,
2013-09-09 02:21:00,63.3,62.1,30.02,ESE,108,0.0,0.0,96,0.00,,,0.00,WeatherCatV1.20B785,2013-09-09 06:21:00,
2013-09-09 02:26:00,63.1,62.2,30.02,ESE,108,0.0,0.0,97,0.00,,,0.00,WeatherCatV1.20B785,2013-09-09 06:26:00,
2013-09-09 02:31:00,63.0,62.1,30.02,ESE,108,0.0,0.0,97,0.00,,,0.00,WeatherCatV1.20B785,2013-09-09 06:31:00,
2013-09-09 02:36:00,62.9,62.0,30.03,ESE,108,0.0,0.0,97,0.00,,,0.00,WeatherCatV1.20B785,2013-09-09 06:36:00,
2013-09-09 02:41:00,62.8,61.9,30.03,ESE,108,0.0,0.0,97,0.00,,,0.00,WeatherCatV1.20B785,2013-09-09 06:41:00,
2013-09-09 02:46:00,62.8,61.9,30.03,ESE,108,0.0,0.0,97,0.00,,,0.00,WeatherCatV1.20B785,2013-09-09 06:46:00,
2013-09-09 02:51:00,62.7,61.8,30.03,ESE,108,0.0,0.0,97,0.00,,,0.00,WeatherCatV1.20B785,2013-09-09 06:51:00,
2013-09-09 02:56:00,62.5,61.6,30.03,ESE,108,0.0,0.0,97,0.00,,,0.00,WeatherCatV1.20B785,2013-09-09 06:56:00,
2013-09-09 03:01:00,62.5,61.6,30.02,ESE,108,0.0,0.0,97,0.00,,,0.00,WeatherCatV1.20B785,2013-09-09 07:01:00,
2013-09-09 03:06:00,62.7,62.1,30.02,ESE,108,0.0,0.0,98,0.00,,,0.00,WeatherCatV1.20B785,2013-09-09 07:06:00,
2013-09-09 03:11:00,62.8,62.2,30.02,ESE,108,0.0,0.0,98,0.00,,,0.00,WeatherCatV1.20B785,2013-09-09 07:11:00,
2013-09-09 03:16:00,62.8,61.9,30.02,ESE,108,0.0,0.0,97,0.00,,,0.00,WeatherCatV1.20B785,2013-09-09 07:16:00,
2013-09-09 03:21:00,62.8,61.9,30.02,ESE,108,0.0,0.0,97,0.00,,,0.00,WeatherCatV1.20B785,2013-09-09 07:21:00,
2013-09-09 03:26:00,62.7,61.8,30.02,ESE,108,0.0,0.0,97,0.00,,,0.00,WeatherCatV1.20B785,2013-09-09 07:26:00,
2013-09-09 03:31:00,62.7,61.8,30.02,ESE,108,0.0,0.0,97,0.00,,,0.00,WeatherCatV1.20B785,2013-09-09 07:31:00,
2013-09-09 03:36:00,62.6,61.7,30.03,ESE,108,0.0,0.0,97,0.00,,,0.00,WeatherCatV1.20B785,2013-09-09 07:36:00,
2013-09-09 03:41:00,62.6,62.0,30.03,ESE,108,0.0,0.0,98,0.00,,,0.00,WeatherCatV1.20B785,2013-09-09 07:41:00,
2013-09-09 03:46:00,62.8,62.2,30.03,ESE,108,0.0,0.0,98,0.00,,,0.00,WeatherCatV1.20B785,2013-09-09 07:46:00,
2013-09-09 03:51:00,62.8,62.2,30.03,ESE,108,0.0,0.0,98,0.00,,,0.00,WeatherCatV1.20B785,2013-09-09 07:51:00,
2013-09-09 03:56:00,62.9,62.3,30.03,ESE,108,0.0,0.0,98,0.00,,,0.00,WeatherCatV1.20B785,2013-09-09 07:56:00,
2013-09-09 04:01:00,63.0,62.4,30.03,ESE,108,0.0,0.0,98,0.00,,,0.00,WeatherCatV1.20B785,2013-09-09 08:01:00,
2013-09-09 04:06:00,63.2,62.6,30.03,ESE,108,0.0,0.0,98,0.00,,,0.00,WeatherCatV1.20B785,2013-09-09 08:06:00,
2013-09-09 04:11:00,63.2,62.6,30.03,ESE,108,0.0,0.0,98,0.00,,,0.00,WeatherCatV1.20B785,2013-09-09 08:11:00,
2013-09-09 04:16:00,63.3,62.7,30.03,ESE,108,0.0,0.0,98,0.00,,,0.00,WeatherCatV1.20B785,2013-09-09 08:16:00,
2013-09-09 04:21:00,63.3,62.7,30.03,ESE,108,0.0,0.0,98,0.00,,,0.00,WeatherCatV1.20B785,2013-09-09 08:21:00,
2013-09-09 04:26:00,63.2,62.6,30.03,ESE,108,0.0,0.0,98,0.00,,,0.00,WeatherCatV1.20B785,2013-09-09 08:26:00,
2013-09-09 04:31:00,63.3,62.7,30.03,ESE,108,0.0,0.0,98,0.00,,,0.00,WeatherCatV1.20B785,2013-09-09 08:31:00,
2013-09-09 04:36:00,63.4,62.8,30.03,ESE,108,0.0,0.0,98,0.00,,,0.00,WeatherCatV1.20B785,2013-09-09 08:36:00,
2013-09-09 04:41:00,63.4,62.8,30.03,ESE,108,0.0,0.0,98,0.00,,,0.00,WeatherCatV1.20B785,2013-09-09 08:41:00,
2013-09-09 04:46:00,63.5,62.9,30.03,ESE,108,0.0,0.0,98,0.00,,,0.00,WeatherCatV1.20B785,2013-09-09 08:46:00,
2013-09-09 04:51:00,63.5,62.9,30.03,ESE,108,0.0,0.0,98,0.00,,,0.00,WeatherCatV1.20B785,2013-09-09 08:51:00,
2013-09-09 04:56:00,63.5,62.9,30.04,ESE,108,0.0,0.0,98,0.00,,,0.00,WeatherCatV1.20B785,2013-09-09 08:56:00,
2013-09-09 05:01:00,63.4,62.8,30.04,ESE,108,0.0,0.0,98,0.00,,,0.00,WeatherCatV1.20B785,2013-09-09 09:01:00,
2013-09-09 05:06:00,63.4,62.8,30.04,ESE,108,0.0,0.0,98,0.00,,,0.00,WeatherCatV1.20B785,2013-09-09 09:06:00,
2013-09-09 05:11:00,63.4,62.8,30.04,ESE,108,0.0,0.0,98,0.00,,,0.00,WeatherCatV1.20B785,2013-09-09 09:11:00,
2013-09-09 05:16:00,63.4,62.8,30.04,ESE,108,0.0,0.0,98,0.00,,,0.00,WeatherCatV1.20B785,2013-09-09 09:16:00,
2013-09-09 05:21:00,63.4,62.8,30.05,ESE,108,0.0,0.0,98,0.00,,,0.00,WeatherCatV1.20B785,2013-09-09 09:21:00,
2013-09-09 05:26:00,63.4,62.8,30.05,ESE,108,0.0,0.0,98,0.00,,,0.00,WeatherCatV1.20B785,2013-09-09 09:26:00,
2013-09-09 05:31:00,63.3,62.4,30.05,ESE,108,0.0,0.0,97,0.00,,,0.00,WeatherCatV1.20B785,2013-09-09 09:31:00,
2013-09-09 05:36:00,63.2,62.3,30.05,ESE,108,0.0,0.0,97,0.00,,,0.00,WeatherCatV1.20B785,2013-09-09 09:36:00,
2013-09-09 05:41:00,63.0,62.1,30.05,ESE,108,0.0,0.0,97,0.00,,,0.00,WeatherCatV1.20B785,2013-09-09 09:41:00,
2013-09-09 05:46:00,62.9,62.0,30.05,ESE,108,0.0,0.0,97,0.00,,,0.00,WeatherCatV1.20B785,2013-09-09 09:46:00,
2013-09-09 05:51:00,62.8,61.9,30.05,ESE,108,0.0,0.0,97,0.00,,,0.00,WeatherCatV1.20B785,2013-09-09 09:51:00,
2013-09-09 05:56:00,62.8,61.9,30.05,ESE,108,0.0,0.0,97,0.00,,,0.00,WeatherCatV1.20B785,2013-09-09 09:56:00,
2013-09-09 06:01:00,62.6,61.7,30.05,ESE,108,0.0,0.0,97,0.00,,,0.00,WeatherCatV1.20B785,2013-09-09 10:01:00,
2013-09-09 06:06:00,62.6,61.7,30.05,ESE,108,0.0,0.0,97,0.00,,,0.00,WeatherCatV1.20B785,2013-09-09 10:06:00,
2013-09-09 06:11:00,62.6,61.7,30.05,ESE,108,0.0,0.0,97,0.00,,,0.00,WeatherCatV1.20B785,2013-09-09 10:11:00,
2013-09-09 06:16:00,62.5,61.6,30.05,ESE,108,0.0,0.0,97,0.00,,,0.00,WeatherCatV1.20B785,2013-09-09 10:16:00,
2013-09-09 06:21:00,62.4,61.5,30.05,ESE,108,0.0,0.0,97,0.00,,,0.00,WeatherCatV1.20B785,2013-09-09 10:21:00,
2013-09-09 06:26:00,62.2,61.3,30.05,ESE,108,0.0,0.0,97,0.00,,,0.00,WeatherCatV1.20B785,2013-09-09 10:26:00,
2013-09-09 06:31:00,62.2,61.3,30.05,ESE,108,0.0,0.0,97,0.00,,,0.00,WeatherCatV1.20B785,2013-09-09 10:31:00,
2013-09-09 06:36:00,62.1,61.2,30.05,ESE,108,0.0,0.0,97,0.00,,,0.00,WeatherCatV1.20B785,2013-09-09 10:36:00,
2013-09-09 06:41:00,62.0,61.1,30.05,ESE,108,0.0,0.0,97,0.00,,,0.00,WeatherCatV1.20B785,2013-09-09 10:41:00,
2013-09-09 06:46:00,61.8,60.9,30.05,ESE,108,0.0,0.0,97,0.00,,,0.00,WeatherCatV1.20B785,2013-09-09 10:46:00,
2013-09-09 06:51:00,61.7,60.8,30.05,ESE,108,0.0,0.0,97,0.00,,,0.00,WeatherCatV1.20B785,2013-09-09 10:51:00,
2013-09-09 06:56:00,61.6,60.7,30.06,ESE,108,0.0,0.0,97,0.00,,,0.00,WeatherCatV1.20B785,2013-09-09 10:56:00,
2013-09-09 07:01:00,61.5,60.6,30.06,ESE,108,0.0,0.0,97,0.00,,,0.00,WeatherCatV1.20B785,2013-09-09 11:01:00,
2013-09-09 07:06:00,61.5,60.9,30.06,ESE,108,0.0,0.0,98,0.00,,,0.00,WeatherCatV1.20B785,2013-09-09 11:06:00,
2013-09-09 07:11:00,61.5,60.9,30.06,ESE,108,0.0,0.0,98,0.00,,,0.00,WeatherCatV1.20B785,2013-09-09 11:11:00,
2013-09-09 07:16:00,61.5,60.9,30.06,ESE,108,0.0,0.0,98,0.00,,,0.00,WeatherCatV1.20B785,2013-09-09 11:16:00,
2013-09-09 07:21:00,61.6,61.0,30.06,ESE,108,0.0,0.0,98,0.00,,,0.00,WeatherCatV1.20B785,2013-09-09 11:21:00,
2013-09-09 07:26:00,61.6,61.0,30.06,ESE,108,0.0,0.0,98,0.00,,,0.00,WeatherCatV1.20B785,2013-09-09 11:26:00,
2013-09-09 07:31:00,61.7,61.1,30.07,ESE,108,0.0,0.0,98,0.00,,,0.00,WeatherCatV1.20B785,2013-09-09 11:31:00,
2013-09-09 07:36:00,61.8,61.2,30.07,ESE,108,0.0,0.0,98,0.00,,,0.00,WeatherCatV1.20B785,2013-09-09 11:36:00,
2013-09-09 07:41:00,62.0,61.4,30.07,ESE,108,0.0,0.0,98,0.00,,,0.00,WeatherCatV1.20B785,2013-09-09 11:41:00,
2013-09-09 07:46:00,62.1,61.5,30.07,ESE,108,0.0,0.0,98,0.00,,,0.00,WeatherCatV1.20B785,2013-09-09 11:46:00,
2013-09-09 07:51:00,62.2,61.6,30.07,ESE,108,0.0,0.0,98,0.00,,,0.00,WeatherCatV1.20B785,2013-09-09 11:51:00,
2013-09-09 07:56:00,62.3,61.7,30.07,ESE,108,0.0,0.0,98,0.00,,,0.00,WeatherCatV1.20B785,2013-09-09 11:56:00,
2013-09-09 08:01:00,62.4,61.8,30.07,ESE,108,0.0,0.0,98,0.00,,,0.00,WeatherCatV1.20B785,2013-09-09 12:01:00,
2013-09-09 08:06:00,62.4,61.8,30.07,ESE,108,0.0,0.0,98,0.00,,,0.00,WeatherCatV1.20B785,2013-09-09 12:06:00,
2013-09-09 08:11:00,62.6,62.0,30.07,ESE,108,0.0,0.0,98,0.00,,,0.00,WeatherCatV1.20B785,2013-09-09 12:11:00,
2013-09-09 08:16:00,62.7,62.1,30.07,ESE,108,0.0,0.0,98,0.00,,,0.00,WeatherCatV1.20B785,2013-09-09 12:16:00,
2013-09-09 08:21:00,62.8,62.2,30.08,ESE,108,0.0,0.0,98,0.00,,,0.00,WeatherCatV1.20B785,2013-09-09 12:21:00,
2013-09-09 08:26:00,63.0,62.4,30.07,ESE,108,0.0,0.0,98,0.00,,,0.00,WeatherCatV1.20B785,2013-09-09 12:26:00,
2013-09-09 08:31:00,63.2,62.6,30.08,ESE,108,0.0,0.0,98,0.00,,,0.00,WeatherCatV1.20B785,2013-09-09 12:31:00,
2013-09-09 08:36:00,63.3,62.7,30.08,ESE,108,0.0,0.0,98,0.00,,,0.00,WeatherCatV1.20B785,2013-09-09 12:36:00,
2013-09-09 08:41:00,63.6,63.0,30.08,ESE,108,0.0,0.0,98,0.00,,,0.00,WeatherCatV1.20B785,2013-09-09 12:41:00,
2013-09-09 08:46:00,63.8,63.2,30.08,ESE,108,0.0,0.0,98,0.00,,,0.00,WeatherCatV1.20B785,2013-09-09 12:46:00,
2013-09-09 08:51:00,64.0,63.4,30.08,ESE,108,0.0,0.0,98,0.00,,,0.00,WeatherCatV1.20B785,2013-09-09 12:51:00,
2013-09-09 08:56:00,64.1,63.5,30.08,ESE,108,0.0,0.0,98,0.00,,,0.00,WeatherCatV1.20B785,2013-09-09 12:56:00,
2013-09-09 09:01:00,64.3,63.7,30.08,ESE,108,0.0,0.0,98,0.00,,,0.00,WeatherCatV1.20B785,2013-09-09 13:01:00,
2013-09-09 09:06:00,64.5,63.9,30.09,ESE,108,0.0,0.0,98,0.00,,,0.00,WeatherCatV1.20B785,2013-09-09 13:06:00,
2013-09-09 09:11:00,64.4,63.8,30.09,ESE,108,0.0,0.0,98,0.00,,,0.00,WeatherCatV1.20B785,2013-09-09 13:11:00,
2013-09-09 09:16:00,64.5,63.9,30.09,ESE,108,0.0,0.0,98,0.00,,,0.00,WeatherCatV1.20B785,2013-09-09 13:16:00,
2013-09-09 09:21:00,64.6,63.7,30.09,ESE,108,0.0,0.0,97,0.00,,,0.00,WeatherCatV1.20B785,2013-09-09 13:21:00,
2013-09-09 09:26:00,64.7,64.1,30.09,ESE,108,0.0,0.0,98,0.00,,,0.00,WeatherCatV1.20B785,2013-09-09 13:26:00,
2013-09-09 09:31:00,65.0,64.1,30.09,ESE,108,0.0,0.0,97,0.00,,,0.00,WeatherCatV1.20B785,2013-09-09 13:31:00,
2013-09-09 09:36:00,65.0,64.1,30.09,ESE,108,0.0,1.0,97,0.00,,,0.00,WeatherCatV1.20B785,2013-09-09 13:36:00,
2013-09-09 09:41:00,65.1,64.2,30.09,ESE,106,0.0,0.0,97,0.00,,,0.00,WeatherCatV1.20B785,2013-09-09 13:41:00,
2013-09-09 09:46:00,65.4,64.5,30.09,ESE,106,0.0,0.0,97,0.00,,,0.00,WeatherCatV1.20B785,2013-09-09 13:46:00,
2013-09-09 09:51:00,65.7,64.8,30.09,ESE,106,0.0,0.0,97,0.00,,,0.00,WeatherCatV1.20B785,2013-09-09 13:51:00,
2013-09-09 09:56:00,66.0,64.8,30.09,ESE,106,0.0,0.0,96,0.00,,,0.00,WeatherCatV1.20B785,2013-09-09 13:56:00,
2013-09-09 10:01:00,66.4,65.2,30.09,ESE,106,0.0,0.0,96,0.00,,,0.00,WeatherCatV1.20B785,2013-09-09 14:01:00,
2013-09-09 10:06:00,66.8,65.0,30.09,ESE,105,0.0,0.0,94,0.00,,,0.00,WeatherCatV1.20B785,2013-09-09 14:06:00,
2013-09-09 10:11:00,67.1,65.3,30.09,ESE,106,0.0,0.0,94,0.00,,,0.00,WeatherCatV1.20B785,2013-09-09 14:11:00,
2013-09-09 10:16:00,67.5,65.7,30.09,ESE,104,0.0,0.0,94,0.00,,,0.00,WeatherCatV1.20B785,2013-09-09 14:16:00,
2013-09-09 10:21:00,67.9,65.8,30.09,East,100,0.0,0.0,93,0.00,,,0.00,WeatherCatV1.20B785,2013-09-09 14:21:00,
2013-09-09 10:26:00,68.4,66.3,30.09,ENE,72,0.0,1.0,93,0.00,,,0.00,WeatherCatV1.20B785,2013-09-09 14:26:00,
2013-09-09 10:31:00,68.8,66.4,30.09,ENE,72,0.0,0.0,92,0.00,,,0.00,WeatherCatV1.20B785,2013-09-09 14:31:00,
2013-09-09 10:36:00,69.0,66.6,30.09,ENE,68,0.0,0.0,92,0.00,,,0.00,WeatherCatV1.20B785,2013-09-09 14:36:00,
2013-09-09 10:41:00,69.3,66.6,30.09,ENE,69,0.0,0.0,91,0.00,,,0.00,WeatherCatV1.20B785,2013-09-09 14:41:00,
2013-09-09 10:46:00,69.7,66.9,30.09,ENE,69,1.0,1.0,91,0.00,,,0.00,WeatherCatV1.20B785,2013-09-09 14:46:00,
2013-09-09 10:51:00,70.0,67.2,30.09,East,87,0.0,0.0,91,0.00,,,0.00,WeatherCatV1.20B785,2013-09-09 14:51:00,
2013-09-09 10:56:00,70.5,67.4,30.09,East,79,0.0,1.0,90,0.00,,,0.00,WeatherCatV1.20B785,2013-09-09 14:56:00,
2013-09-09 11:01:00,71.1,67.7,30.09,ENE,64,2.0,3.0,89,0.00,,,0.00,WeatherCatV1.20B785,2013-09-09 15:01:00,
2013-09-09 11:06:00,71.6,67.8,30.09,NE,56,3.0,3.0,88,0.00,,,0.00,WeatherCatV1.20B785,2013-09-09 15:06:00,
2013-09-09 11:11:00,72.2,68.4,30.09,East,83,2.0,2.0,88,0.00,,,0.00,WeatherCatV1.20B785,2013-09-09 15:11:00,
2013-09-09 11:16:00,72.7,68.9,30.09,ESE,118,0.0,1.0,88,0.00,,,0.00,WeatherCatV1.20B785,2013-09-09 15:16:00,
2013-09-09 11:21:00,73.1,69.0,30.09,ESE,118,0.0,1.0,87,0.00,,,0.00,WeatherCatV1.20B785,2013-09-09 15:21:00,
2013-09-09 11:26:00,73.2,68.8,30.09,ESE,118,0.0,0.0,86,0.00,,,0.00,WeatherCatV1.20B785,2013-09-09 15:26:00,
2013-09-09 11:31:00,73.5,69.0,30.09,SE,126,0.0,0.0,86,0.00,,,0.00,WeatherCatV1.20B785,2013-09-09 15:31:00,
2013-09-09 11:36:00,73.9,68.8,30.08,SE,141,1.0,2.0,84,0.00,,,0.00,WeatherCatV1.20B785,2013-09-09 15:36:00,
2013-09-09 11:41:00,74.3,69.5,30.08,SE,139,0.0,0.0,85,0.00,,,0.00,WeatherCatV1.20B785,2013-09-09 15:41:00,
2013-09-09 11:46:00,74.6,69.8,30.09,SE,139,0.0,0.0,85,0.00,,,0.00,WeatherCatV1.20B785,2013-09-09 15:46:00,
2013-09-09 11:51:00,75.0,68.4,30.09,East,89,0.0,0.0,80,0.00,,,0.00,WeatherCatV1.20B785,2013-09-09 15:51:00,
2013-09-09 11:56:00,75.3,68.7,30.08,East,89,0.0,0.0,80,0.00,,,0.00,WeatherCatV1.20B785,2013-09-09 15:56:00,
2013-09-09 12:01:00,75.6,66.7,30.08,ESE,122,0.0,3.0,74,0.00,,,0.00,WeatherCatV1.20B785,2013-09-09 16:01:00,
2013-09-09 12:06:00,76.2,68.1,30.08,ESE,122,0.0,0.0,76,0.00,,,0.00,WeatherCatV1.20B785,2013-09-09 16:06:00,
2013-09-09 12:11:00,76.2,68.1,30.08,ESE,122,0.0,0.0,76,0.00,,,0.00,WeatherCatV1.20B785,2013-09-09 16:11:00,
2013-09-09 12:16:00,76.2,67.7,30.08,ENE,60,1.0,3.0,75,0.00,,,0.00,WeatherCatV1.20B785,2013-09-09 16:16:00,
2013-09-09 12:21:00,77.0,68.1,30.08,ENE,65,0.0,0.0,74,0.00,,,0.00,WeatherCatV1.20B785,2013-09-09 16:21:00,
2013-09-09 12:26:00,77.4,69.2,30.08,ENE,75,0.0,0.0,76,0.00,,,0.00,WeatherCatV1.20B785,2013-09-09 16:26:00,
2013-09-09 12:31:00,78.0,68.6,30.08,East,89,0.0,0.0,73,0.00,,,0.00,WeatherCatV1.20B785,2013-09-09 16:31:00,
2013-09-09 12:36:00,78.3,67.7,30.08,East,89,0.0,0.0,70,0.00,,,0.00,WeatherCatV1.20B785,2013-09-09 16:36:00,
2013-09-09 12:41:00,78.4,67.8,30.08,East,91,0.0,0.0,70,0.00,,,0.00,WeatherCatV1.20B785,2013-09-09 16:41:00,
2013-09-09 12:46:00,78.0,67.8,30.08,East,90,0.0,0.0,71,0.00,,,0.00,WeatherCatV1.20B785,2013-09-09 16:46:00,
2013-09-09 12:51:00,78.2,68.0,30.08,East,84,0.0,1.0,71,0.00,,,0.00,WeatherCatV1.20B785,2013-09-09 16:51:00,
2013-09-09 12:56:00,78.6,67.1,30.08,East,98,0.0,0.0,68,0.00,,,0.00,WeatherCatV1.20B785,2013-09-09 16:56:00,
2013-09-09 13:01:00,78.4,66.9,30.08,East,98,0.0,0.0,68,0.00,,,0.00,WeatherCatV1.20B785,2013-09-09 17:01:00,
2013-09-09 13:06:00,78.4,67.8,30.08,ESE,118,0.0,0.0,70,0.00,,,0.00,WeatherCatV1.20B785,2013-09-09 17:06:00,
2013-09-09 13:11:00,79.1,68.9,30.08,ENE,75,0.0,0.0,71,0.00,,,0.00,WeatherCatV1.20B785,2013-09-09 17:11:00,
2013-09-09 13:16:00,79.7,69.0,30.07,East,94,0.0,0.0,70,0.00,,,0.00,WeatherCatV1.20B785,2013-09-09 17:16:00,
2013-09-09 13:21:00,80.6,69.0,30.08,ENE,70,0.0,0.0,68,0.00,,,0.00,WeatherCatV1.20B785,2013-09-09 17:21:00,
2013-09-09 13:26:00,81.9,67.6,30.07,East,80,0.0,3.0,62,0.00,,,0.00,WeatherCatV1.20B785,2013-09-09 17:26:00,
2013-09-09 13:31:00,82.4,67.6,30.07,ESE,110,0.0,1.0,61,0.00,,,0.00,WeatherCatV1.20B785,2013-09-09 17:31:00,
2013-09-09 13:36:00,82.4,69.0,30.07,ESE,110,0.0,0.0,64,0.00,,,0.00,WeatherCatV1.20B785,2013-09-09 17:36:00,
2013-09-09 13:41:00,82.0,68.6,30.07,ESE,110,0.0,0.0,64,0.00,,,0.00,WeatherCatV1.20B785,2013-09-09 17:41:00,
2013-09-09 13:45:00,81.7,67.8,30.07,ESE,111,0.0,2.0,63,0.00,,,0.00,WeatherCatV1.20B785,2013-09-09 17:45:00,
2013-09-09 13:50:00,81.8,68.4,30.07,SE,129,0.0,1.0,64,0.00,,,0.00,WeatherCatV1.20B785,2013-09-09 17:50:00,
2013-09-09 13:55:00,81.8,68.9,30.07,ESE,107,0.0,0.0,65,0.00,,,0.00,WeatherCatV1.20B785,2013-09-09 17:55:00,
2013-09-09 14:00:00,81.5,68.1,30.07,East,79,0.0,0.0,64,0.00,,,0.00,WeatherCatV1.20B785,2013-09-09 18:00:00,
2013-09-09 14:05:00,81.4,68.5,30.07,ENE,71,0.0,0.0,65,0.00,,,0.00,WeatherCatV1.20B785,2013-09-09 18:05:00,
2013-09-09 14:10:00,81.4,68.0,30.07,ENE,72,0.0,0.0,64,0.00,,,0.00,WeatherCatV1.20B785,2013-09-09 18:10:00,
2013-09-09 14:15:00,81.3,67.9,30.07,ESE,105,0.0,0.0,64,0.00,,,0.00,WeatherCatV1.20B785,2013-09-09 18:15:00,
2013-09-09 14:20:00,81.5,68.6,30.07,ESE,118,0.0,2.0,65,0.00,,,0.00,WeatherCatV1.20B785,2013-09-09 18:20:00,
2013-09-09 14:25:00,81.1,67.7,30.07,ESE,113,0.0,0.0,64,0.00,,,0.00,WeatherCatV1.20B785,2013-09-09 18:25:00,
2013-09-09 14:30:00,81.4,68.5,30.07,ESE,103,0.0,0.0,65,0.00,,,0.00,WeatherCatV1.20B785,2013-09-09 18:30:00,
2013-09-09 14:35:00,81.0,67.2,30.07,East,101,0.0,1.0,63,0.00,,,0.00,WeatherCatV1.20B785,2013-09-09 18:35:00,
2013-09-09 14:40:00,80.3,67.4,30.07,ESE,106,0.0,0.0,65,0.00,,,0.00,WeatherCatV1.20B785,2013-09-09 18:40:00,
2013-09-09 14:45:00,81.1,68.6,30.07,ESE,108,0.0,0.0,66,0.00,,,0.00,WeatherCatV1.20B785,2013-09-09 18:45:00,
2013-09-09 14:57:00,82.1,68.2,30.07,ESE,108,0.0,0.0,63,0.00,,,0.00,WeatherCatV1.20B785,2013-09-09 18:57:00,
2013-09-09 15:02:00,84.0,68.6,30.06,East,98,0.0,2.0,60,0.00,,,0.00,WeatherCatV1.20B785,2013-09-09 19:02:00,
2013-09-09 15:07:00,84.2,67.8,30.06,East,98,0.0,0.0,58,0.00,,,0.00,WeatherCatV1.20B785,2013-09-09 19:07:00,
2013-09-09 15:12:00,83.8,67.4,30.06,ESE,117,0.0,0.0,58,0.00,,,0.00,WeatherCatV1.20B785,2013-09-09 19:12:00,
2013-09-09 15:17:00,84.3,68.9,30.06,ESE,117,0.0,0.0,60,0.00,,,0.00,WeatherCatV1.20B785,2013-09-09 19:17:00,
2013-09-09 15:22:00,84.2,66.8,30.05,ESE,105,0.0,1.0,56,0.00,,,0.00,WeatherCatV1.20B785,2013-09-09 19:22:00,
2013-09-09 15:27:00,83.9,67.0,30.05,ESE,108,0.0,0.0,57,0.00,,,0.00,WeatherCatV1.20B785,2013-09-09 19:27:00,
2013-09-09 15:32:00,83.8,67.9,30.05,ESE,108,0.0,0.0,59,0.00,,,0.00,WeatherCatV1.20B785,2013-09-09 19:32:00,
2013-09-09 15:37:00,84.3,68.9,30.05,SE,132,0.0,1.0,60,0.00,,,0.00,WeatherCatV1.20B785,2013-09-09 19:37:00,
2013-09-09 15:42:00,83.9,66.5,30.05,South,186,0.0,0.0,56,0.00,,,0.00,WeatherCatV1.20B785,2013-09-09 19:42:00,
2013-09-09 15:47:00,83.7,67.3,30.05,SW,220,1.0,2.0,58,0.00,,,0.00,WeatherCatV1.20B785,2013-09-09 19:47:00,
2013-09-09 15:52:00,83.6,67.2,30.05,SSW,212,0.0,0.0,58,0.00,,,0.00,WeatherCatV1.20B785,2013-09-09 19:52:00,
2013-09-09 15:57:00,83.5,66.6,30.05,SSE,153,0.0,0.0,57,0.00,,,0.00,WeatherCatV1.20B785,2013-09-09 19:57:00,
2013-09-09 16:02:00,83.6,67.7,30.05,SE,145,0.0,0.0,59,0.00,,,0.00,WeatherCatV1.20B785,2013-09-09 20:02:00,
2013-09-09 16:07:00,83.8,65.9,30.05,ESE,122,0.0,4.0,55,0.00,,,0.00,WeatherCatV1.20B785,2013-09-09 20:07:00,
2013-09-09 16:12:00,83.2,66.9,30.05,ESE,122,0.0,1.0,58,0.00,,,0.00,WeatherCatV1.20B785,2013-09-09 20:12:00,
2013-09-09 16:17:00,83.7,65.8,30.05,ENE,72,0.0,0.0,55,0.00,,,0.00,WeatherCatV1.20B785,2013-09-09 20:17:00,
2013-09-09 16:22:00,84.6,66.6,30.05,ENE,77,0.0,2.0,55,0.00,,,0.00,WeatherCatV1.20B785,2013-09-09 20:22:00,
2013-09-09 16:27:00,84.6,66.1,30.05,SE,129,0.0,2.0,54,0.00,,,0.00,WeatherCatV1.20B785,2013-09-09 20:27:00,
2013-09-09 16:32:00,83.8,65.9,30.05,SSE,166,0.0,1.0,55,0.00,,,0.00,WeatherCatV1.20B785,2013-09-09 20:32:00,
2013-09-09 16:37:00,83.1,66.3,30.05,SE,146,0.0,0.0,57,0.00,,,0.00,WeatherCatV1.20B785,2013-09-09 20:37:00,
2013-09-09 16:42:00,82.8,67.5,30.05,SE,141,0.0,0.0,60,0.00,,,0.00,WeatherCatV1.20B785,2013-09-09 20:42:00,
2013-09-09 16:47:00,82.1,65.8,30.05,SE,141,1.0,2.0,58,0.00,,,0.00,WeatherCatV1.20B785,2013-09-09 20:47:00,
2013-09-09 16:52:00,81.0,65.8,30.05,SE,139,0.0,2.0,60,0.00,,,0.00,WeatherCatV1.20B785,2013-09-09 20:52:00,
2013-09-09 16:57:00,80.1,66.3,30.05,SE,139,0.0,0.0,63,0.00,,,0.00,WeatherCatV1.20B785,2013-09-09 20:57:00,
2013-09-09 17:02:00,79.6,66.8,30.05,SE,139,0.0,0.0,65,0.00,,,0.00,WeatherCatV1.20B785,2013-09-09 21:02:00,
2013-09-09 17:07:00,79.6,67.2,30.05,SE,139,0.0,0.0,66,0.00,,,0.00,WeatherCatV1.20B785,2013-09-09 21:07:00,
2013-09-09 17:12:00,79.7,67.8,30.04,SE,139,0.0,0.0,67,0.00,,,0.00,WeatherCatV1.20B785,2013-09-09 21:12:00,
2013-09-09 17:17:00,79.7,67.8,30.05,SE,139,0.0,0.0,67,0.00,,,0.00,WeatherCatV1.20B785,2013-09-09 21:17:00,
2013-09-09 17:22:00,79.5,68.0,30.05,ESE,108,0.0,1.0,68,0.00,,,0.00,WeatherCatV1.20B785,2013-09-09 21:22:00,
2013-09-09 17:27:00,79.0,67.9,30.05,ESE,112,0.0,1.0,69,0.00,,,0.00,WeatherCatV1.20B785,2013-09-09 21:27:00,
2013-09-09 17:32:00,78.5,67.5,30.05,ESE,112,0.0,0.0,69,0.00,,,0.00,WeatherCatV1.20B785,2013-09-09 21:32:00,
2013-09-09 17:37:00,78.1,67.9,30.05,East,99,0.0,1.0,71,0.00,,,0.00,WeatherCatV1.20B785,2013-09-09 21:37:00,
2013-09-09 17:42:00,77.7,67.1,30.05,ESE,102,0.0,0.0,70,0.00,,,0.00,WeatherCatV1.20B785,2013-09-09 21:42:00,
2013-09-09 17:47:00,77.6,67.4,30.05,ESE,102,0.0,0.0,71,0.00,,,0.00,WeatherCatV1.20B785,2013-09-09 21:47:00,
2013-09-09 17:52:00,77.3,67.6,30.05,ESE,102,0.0,0.0,72,0.00,,,0.00,WeatherCatV1.20B785,2013-09-09 21:52:00,
2013-09-09 17:57:00,77.2,67.1,30.05,ESE,102,0.0,0.0,71,0.00,,,0.00,WeatherCatV1.20B785,2013-09-09 21:57:00,
2013-09-09 18:02:00,77.3,66.7,30.05,ENE,65,0.0,3.0,70,0.00,,,0.00,WeatherCatV1.20B785,2013-09-09 22:02:00,
2013-09-09 18:07:00,77.7,67.5,30.05,East,90,0.0,0.0,71,0.00,,,0.00,WeatherCatV1.20B785,2013-09-09 22:07:00,
2013-09-09 18:12:00,77.8,67.6,30.05,ESE,114,0.0,0.0,71,0.00,,,0.00,WeatherCatV1.20B785,2013-09-09 22:12:00,
2013-09-09 18:17:00,77.5,66.5,30.05,SSE,167,0.0,2.0,69,0.00,,,0.00,WeatherCatV1.20B785,2013-09-09 22:17:00,
2013-09-09 18:22:00,77.5,66.9,30.05,East,95,0.0,1.0,70,0.00,,,0.00,WeatherCatV1.20B785,2013-09-09 22:22:00,
2013-09-09 18:27:00,77.4,67.2,30.05,East,95,0.0,1.0,71,0.00,,,0.00,WeatherCatV1.20B785,2013-09-09 22:27:00,
2013-09-09 18:32:00,77.2,67.9,30.05,East,95,0.0,0.0,73,0.00,,,0.00,WeatherCatV1.20B785,2013-09-09 22:32:00,
2013-09-09 18:37:00,76.9,67.2,30.05,East,96,0.0,0.0,72,0.00,,,0.00,WeatherCatV1.20B785,2013-09-09 22:37:00,
2013-09-09 18:42:00,76.7,67.4,30.05,SE,136,0.0,2.0,73,0.00,,,0.00,WeatherCatV1.20B785,2013-09-09 22:42:00,
2013-09-09 18:47:00,76.6,67.7,30.05,SE,136,0.0,0.0,74,0.00,,,0.00,WeatherCatV1.20B785,2013-09-09 22:47:00,
2013-09-09 18:52:00,76.4,67.1,30.05,SE,141,1.0,1.0,73,0.00,,,0.00,WeatherCatV1.20B785,2013-09-09 22:52:00,
2013-09-09 18:57:00,76.3,67.0,30.05,South,169,0.0,1.0,73,0.00,,,0.00,WeatherCatV1.20B785,2013-09-09 22:57:00,
2013-09-09 19:02:00,76.1,67.2,30.05,SE,146,0.0,0.0,74,0.00,,,0.00,WeatherCatV1.20B785,2013-09-09 23:02:00,
2013-09-09 19:07:00,75.9,67.0,30.06,South,173,2.0,2.0,74,0.00,,,0.00,WeatherCatV1.20B785,2013-09-09 23:07:00,
2013-09-09 19:12:00,75.8,66.9,30.06,SSW,206,0.0,0.0,74,0.00,,,0.00,WeatherCatV1.20B785,2013-09-09 23:12:00,
2013-09-09 19:17:00,75.7,67.2,30.06,SSW,206,0.0,0.0,75,0.00,,,0.00,WeatherCatV1.20B785,2013-09-09 23:17:00,
2013-09-09 19:22:00,75.3,67.2,30.06,SE,144,0.0,0.0,76,0.00,,,0.00,WeatherCatV1.20B785,2013-09-09 23:22:00,
2013-09-09 19:27:00,75.0,66.9,30.06,SE,144,0.0,0.0,76,0.00,,,0.00,WeatherCatV1.20B785,2013-09-09 23:27:00,
2013-09-09 19:32:00,74.8,67.5,30.06,ESE,103,0.0,2.0,78,0.00,,,0.00,WeatherCatV1.20B785,2013-09-09 23:32:00,
2013-09-09 19:37:00,74.4,67.1,30.07,ESE,120,0.0,0.0,78,0.00,,,0.00,WeatherCatV1.20B785,2013-09-09 23:37:00,
2013-09-09 19:42:00,74.3,66.6,30.07,ESE,120,0.0,0.0,77,0.00,,,0.00,WeatherCatV1.20B785,2013-09-09 23:42:00,
2013-09-09 19:47:00,74.4,66.3,30.07,South,179,0.0,3.0,76,0.00,,,0.00,WeatherCatV1.20B785,2013-09-09 23:47:00,
2013-09-09 19:52:00,74.5,66.4,30.07,SE,146,0.0,2.0,76,0.00,,,0.00,WeatherCatV1.20B785,2013-09-09 23:52:00,
2013-09-09 19:57:00,74.4,66.7,30.07,SE,146,0.0,1.0,77,0.00,,,0.00,WeatherCatV1.20B785,2013-09-09 23:57:00,
2013-09-09 20:02:00,74.0,66.3,30.07,ESE,110,0.0,0.0,77,0.00,,,0.00,WeatherCatV1.20B785,2013-09-10 00:02:00,
2013-09-09 20:07:00,73.9,66.2,30.07,SSE,150,0.0,2.0,77,0.00,,,0.00,WeatherCatV1.20B785,2013-09-10 00:07:00,
2013-09-09 20:12:00,74.0,66.3,30.08,SSE,148,0.0,1.0,77,0.00,,,0.00,WeatherCatV1.20B785,2013-09-10 00:12:00,
2013-09-09 20:17:00,73.8,66.5,30.08,SSE,148,0.0,0.0,78,0.00,,,0.00,WeatherCatV1.20B785,2013-09-10 00:17:00,
2013-09-09 20:22:00,73.5,66.9,30.08,SSE,148,0.0,0.0,80,0.00,,,0.00,WeatherCatV1.20B785,2013-09-10 00:22:00,
2013-09-09 20:27:00,72.9,66.7,30.08,SSE,148,0.0,0.0,81,0.00,,,0.00,WeatherCatV1.20B785,2013-09-10 00:27:00,
2013-09-09 20:32:00,72.6,66.8,30.08,SSE,148,0.0,0.0,82,0.00,,,0.00,WeatherCatV1.20B785,2013-09-10 00:32:00,
2013-09-09 20:37:00,72.3,66.5,30.08,SSE,148,0.0,0.0,82,0.00,,,0.00,WeatherCatV1.20B785,2013-09-10 00:37:00,
2013-09-09 20:42:00,72.1,66.6,30.08,SSE,148,0.0,0.0,83,0.00,,,0.00,WeatherCatV1.20B785,2013-09-10 00:42:00,
2013-09-09 20:47:00,71.9,66.4,30.08,SSE,148,0.0,0.0,83,0.00,,,0.00,WeatherCatV1.20B785,2013-09-10 00:47:00,
2013-09-09 20:52:00,71.7,66.6,30.09,SSE,148,0.0,0.0,84,0.00,,,0.00,WeatherCatV1.20B785,2013-09-10 00:52:00,
2013-09-09 20:57:00,71.5,66.7,30.08,SSE,148,0.0,0.0,85,0.00,,,0.00,WeatherCatV1.20B785,2013-09-10 00:57:00,
2013-09-09 21:02:00,71.3,66.6,30.09,SSE,148,0.0,0.0,85,0.00,,,0.00,WeatherCatV1.20B785,2013-09-10 01:02:00,
2013-09-09 21:07:00,71.1,66.3,30.09,SSE,148,0.0,0.0,85,0.00,,,0.00,WeatherCatV1.20B785,2013-09-10 01:07:00,
2013-09-09 21:12:00,71.1,66.3,30.09,SE,143,0.0,0.0,85,0.00,,,0.00,WeatherCatV1.20B785,2013-09-10 01:12:00,
2013-09-09 21:17:00,71.0,66.2,30.09,SE,143,0.0,0.0,85,0.00,,,0.00,WeatherCatV1.20B785,2013-09-10 01:17:00,
2013-09-09 21:22:00,70.7,66.3,30.09,SE,143,0.0,0.0,86,0.00,,,0.00,WeatherCatV1.20B785,2013-09-10 01:22:00,
2013-09-09 21:27:00,70.5,66.1,30.09,SE,143,0.0,0.0,86,0.00,,,0.00,WeatherCatV1.20B785,2013-09-10 01:27:00,
2013-09-09 21:32:00,70.3,66.2,30.09,SE,143,0.0,0.0,87,0.00,,,0.00,WeatherCatV1.20B785,2013-09-10 01:32:00,
2013-09-09 21:37:00,70.1,66.0,30.09,SE,143,0.0,0.0,87,0.00,,,0.00,WeatherCatV1.20B785,2013-09-10 01:37:00,
2013-09-09 21:42:00,69.9,66.2,30.10,SE,130,0.0,0.0,88,0.00,,,0.00,WeatherCatV1.20B785,2013-09-10 01:42:00,
2013-09-09 21:47:00,69.7,66.0,30.10,SE,130,0.0,0.0,88,0.00,,,0.00,WeatherCatV1.20B785,2013-09-10 01:47:00,
2013-09-09 21:52:00,69.6,66.2,30.10,SE,130,0.0,0.0,89,0.00,,,0.00,WeatherCatV1.20B785,2013-09-10 01:52:00,
2013-09-09 21:57:00,69.4,66.0,30.10,SE,130,0.0,0.0,89,0.00,,,0.00,WeatherCatV1.20B785,2013-09-10 01:57:00,
2013-09-09 22:02:00,69.3,65.9,30.10,SE,130,0.0,0.0,89,0.00,,,0.00,WeatherCatV1.20B785,2013-09-10 02:02:00,
2013-09-09 22:07:00,69.5,66.1,30.10,SE,130,0.0,0.0,89,0.00,,,0.00,WeatherCatV1.20B785,2013-09-10 02:07:00,
2013-09-09 22:12:00,69.8,66.1,30.10,SE,130,1.0,1.0,88,0.00,,,0.00,WeatherCatV1.20B785,2013-09-10 02:12:00,
2013-09-09 22:17:00,69.9,66.2,30.10,SE,130,0.0,0.0,88,0.00,,,0.00,WeatherCatV1.20B785,2013-09-10 02:17:00,
2013-09-09 22:22:00,69.7,66.3,30.11,ESE,120,0.0,1.0,89,0.00,,,0.00,WeatherCatV1.20B785,2013-09-10 02:22:00,
2013-09-09 22:27:00,69.5,66.1,30.11,ESE,120,0.0,0.0,89,0.00,,,0.00,WeatherCatV1.20B785,2013-09-10 02:27:00,
2013-09-09 22:32:00,69.3,66.2,30.11,East,101,1.0,1.0,90,0.00,,,0.00,WeatherCatV1.20B785,2013-09-10 02:32:00,
2013-09-09 22:37:00,69.0,65.9,30.11,East,100,0.0,0.0,90,0.00,,,0.00,WeatherCatV1.20B785,2013-09-10 02:37:00,
2013-09-09 22:42:00,68.8,65.7,30.11,East,101,0.0,0.0,90,0.00,,,0.00,WeatherCatV1.20B785,2013-09-10 02:42:00,
2013-09-09 22:47:00,68.6,65.9,30.12,East,100,0.0,0.0,91,0.00,,,0.00,WeatherCatV1.20B785,2013-09-10 02:47:00,
2013-09-09 22:52:00,68.5,65.8,30.12,East,100,0.0,0.0,91,0.00,,,0.00,WeatherCatV1.20B785,2013-09-10 02:52:00,
2013-09-09 22:57:00,68.3,65.6,30.12,East,100,0.0,0.0,91,0.00,,,0.00,WeatherCatV1.20B785,2013-09-10 02:57:00,
2013-09-09 23:02:00,68.2,65.5,30.12,East,101,0.0,0.0,91,0.00,,,0.00,WeatherCatV1.20B785,2013-09-10 03:02:00,
2013-09-09 23:07:00,68.0,65.6,30.11,East,101,0.0,0.0,92,0.00,,,0.00,WeatherCatV1.20B785,2013-09-10 03:07:00,
2013-09-09 23:12:00,67.8,65.4,30.12,East,101,0.0,0.0,92,0.00,,,0.00,WeatherCatV1.20B785,2013-09-10 03:12:00,
2013-09-09 23:17:00,67.8,65.4,30.12,East,101,0.0,0.0,92,0.00,,,0.00,WeatherCatV1.20B785,2013-09-10 03:17:00,
2013-09-09 23:22:00,67.7,65.3,30.11,East,100,0.0,0.0,92,0.00,,,0.00,WeatherCatV1.20B785,2013-09-10 03:22:00,
2013-09-09 23:27:00,67.7,65.3,30.12,East,100,0.0,0.0,92,0.00,,,0.00,WeatherCatV1.20B785,2013-09-10 03:27:00,
2013-09-09 23:32:00,67.8,65.4,30.12,East,101,0.0,0.0,92,0.00,,,0.00,WeatherCatV1.20B785,2013-09-10 03:32:00,
2013-09-09 23:37:00,67.7,65.3,30.11,East,100,0.0,0.0,92,0.00,,,0.00,WeatherCatV1.20B785,2013-09-10 03:37:00,
2013-09-09 23:42:00,67.6,65.2,30.11,East,101,0.0,0.0,92,0.00,,,0.00,WeatherCatV1.20B785,2013-09-10 03:42:00,
2013-09-09 23:47:00,67.4,65.0,30.11,East,101,0.0,0.0,92,0.00,,,0.00,WeatherCatV1.20B785,2013-09-10 03:47:00,
2013-09-09 23:52:00,67.3,64.9,30.11,East,101,0.0,0.0,92,0.00,,,0.00,WeatherCatV1.20B785,2013-09-10 03:52:00,
2013-09-09 23:57:00,67.2,64.8,30.11,East,100,0.0,0.0,92,0.00,,,0.00,WeatherCatV1.20B785,2013-09-10 03:57:00,